DW2537 Weather Reports


time (UTC)temp
F
wind
direction
speed
knots
gust
knots
rain 1hr
in
rain 24hr
in
rain mn
in
humidity
%
barometer
mb
20260903014021 72 0 0.0 0.9 0.00 0.45 0.45 96 1017.8
20260903013520 72 116 0.0 0.9 0.00 0.45 0.45 96 1017.7
20260903013046 72 0 0.0 0.9 0.00 0.45 0.45 96 1017.5
20260903011542 72 0 0.0 0.9 0.00 0.45 0.45 96 1017.2
20260903010040 72 152 0.0 1.7 0.00 0.45 0.45 95 1017.3
20260903005018 72 0 0.0 1.7 0.00 0.45 0.45 95 1017.3
20260903004547 72 0 0.0 0.9 0.00 0.45 0.45 95 1017.3
20260903004021 72 0 0.0 0.0 0.00 0.45 0.45 95 1017.4
20260903003521 72 0 0.0 0.9 0.00 0.45 0.45 95 1017.3
20260903003046 72 0 0.0 0.9 0.00 0.45 0.45 95 1017.1
20260903001543 72 0 0.0 0.9 0.00 0.45 0.45 95 1017.0
20260903000040 73 0 0.0 0.0 0.00 0.45 0.45 94 1017.3
20260902235022 73 0 0.0 0.0 0.00 0.45 0.45 94 1017.2
20260902234548 73 0 0.0 0.9 0.00 0.45 0.45 94 1017.2
20260902234020 73 0 0.0 0.9 0.00 0.45 0.45 93 1017.3
20260902233040 73 0 0.0 0.9 0.00 0.45 0.45 93 1017.3
20260902231548 74 0 0.0 0.9 0.00 0.45 0.45 91 1017.4
20260902230042 74 0 0.0 0.9 0.00 0.45 0.45 91 1017.3
20260902224545 75 228 0.0 2.6 0.00 0.45 0.45 89 1017.4
20260902223521 75 0 0.0 1.7 0.00 0.45 0.45 91 1017.2
20260902223044 75 147 0.0 1.7 0.00 0.45 0.45 89 1017.3
20260902221540 75 0 0.0 1.7 0.00 0.45 0.45 92 1017.4
20260902220043 75 0 0.0 0.9 0.00 0.45 0.45 93 1017.6
20260902214539 74 17 0.0 0.9 0.00 0.45 0.45 94 1017.7
20260902213040 74 0 0.0 0.9 0.00 0.45 0.45 94 1017.9
20260902211539 74 0 0.0 0.9 0.00 0.45 0.45 95 1017.8
20260902211021 73 0 0.0 0.0 0.00 0.45 0.45 95 1017.8
20260902210056 73 0 0.0 0.0 0.00 0.45 0.45 94 1017.9
20260902204547 73 0 0.0 0.9 0.00 0.45 0.45 94 1017.7
20260902203038 74 0 0.0 1.7 0.00 0.45 0.45 93 1017.6
20260902201540 74 0 0.0 1.7 0.00 0.45 0.45 93 1017.8
20260902200520 74 292 0.0 1.7 0.00 0.45 0.45 93 1018.0
20260902200040 74 0 0.0 1.7 0.00 0.45 0.45 93 1017.9
20260902194541 74 0 0.0 2.6 0.00 0.45 0.45 92 1017.7
20260902194025 74 160 0.0 1.7 0.00 0.45 0.45 92 1017.6
20260902193520 74 76 0.0 0.9 0.00 0.45 0.45 92 1017.6
20260902193048 74 76 0.0 0.9 0.00 0.45 0.45 90 1017.6
20260902191546 74 96 0.0 1.7 0.00 0.45 0.45 94 1017.2
20260902190052 73 0 0.9 1.7 0.00 0.45 0.45 95 1017.5
20260902184623 73 0 0.0 2.6 0.03 0.45 0.45 93 1018.0
20260902184025 73 5 0.0 2.6 0.06 0.45 0.45 94 1018.4
20260902183055 73 170 0.0 1.7 0.44 0.45 0.45 93 1018.3
20260902182522 73 0 0.0 1.7 0.45 0.45 0.45 93 1018.2
20260902182021 73 188 0.0 1.7 0.45 0.45 0.45 93 1018.5
20260902181541 73 0 0.0 0.9 0.45 0.45 0.45 92 1018.6
20260902180047 74 0 0.0 2.6 0.45 0.45 0.45 91 1019.5
20260902174542 75 0 0.0 1.7 0.42 0.42 0.42 88 1020.5
20260902173050 80 58 1.7 7.0 0.01 0.01 0.01 79 1021.8
20260902172523 82 246 1.7 7.0 0.00 0.00 0.00 76 1021.8
20260902172023 84 42 0.9 2.6 0.00 0.00 0.00 75 1021.1
20260902171541 84 48 0.9 5.2 0.00 0.00 0.00 75 1020.2
20260902171020 84 0 0.9 5.2 0.00 0.00 0.00 75 1019.7
20260902170038 84 125 0.9 6.1 0.00 0.00 0.00 75 1019.4
20260902164544 83 295 0.9 5.2 0.00 0.00 0.00 77 1019.0
20260902163052 83 148 0.9 4.3 0.00 0.00 0.00 77 1019.0
20260902162021 82 0 0.9 5.2 0.00 0.00 0.00 78 1019.1
20260902161549 82 167 1.7 5.2 0.00 0.00 0.00 77 1019.1
20260902160039 82 82 2.6 7.0 0.00 0.00 0.00 78 1018.9
20260902154539 82 162 2.6 5.2 0.00 0.00 0.00 77 1018.7
20260902154021 82 171 1.7 5.2 0.00 0.00 0.00 77 1018.7
20260902153039 82 201 0.9 5.2 0.00 0.00 0.00 78 1018.7
20260902151551 82 0 0.0 6.1 0.00 0.00 0.00 79 1018.8
20260902150039 82 116 1.7 6.1 0.00 0.00 0.00 78 1018.6
20260902145022 81 169 0.9 5.2 0.00 0.00 0.00 80 1018.7
20260902144540 81 53 0.9 5.2 0.00 0.00 0.00 80 1018.8
20260902143045 80 30 1.7 7.0 0.00 0.00 0.00 81 1018.9
20260902141542 80 109 1.7 4.3 0.00 0.00 0.00 82 1018.8
20260902140044 80 65 1.7 5.2 0.00 0.00 0.00 83 1018.8
20260902135520 80 188 0.9 5.2 0.00 0.00 0.00 84 1018.7
20260902135021 80 42 0.9 6.1 0.00 0.00 0.00 83 1018.6
20260902134554 80 51 0.9 6.1 0.00 0.00 0.00 84 1018.6
20260902133039 79 50 0.9 6.1 0.00 0.00 0.00 85 1018.5
20260902132021 79 19 2.6 6.1 0.00 0.00 0.00 85 1018.5
20260902131546 79 110 1.7 6.1 0.00 0.00 0.00 84 1018.4
20260902131020 79 50 1.7 7.0 0.00 0.00 0.00 84 1018.3
20260902130521 79 46 1.7 7.0 0.00 0.00 0.00 84 1018.3
20260902130051 79 0 0.0 3.5 0.00 0.00 0.00 86 1018.2
20260902124539 78 44 1.7 7.0 0.00 0.00 0.00 86 1018.1
20260902123040 77 291 0.9 5.2 0.00 0.00 0.00 88 1018.1
20260902122524 77 38 0.9 5.2 0.00 0.00 0.00 88 1018.0
20260902122019 77 86 0.9 5.2 0.00 0.00 0.00 89 1018.0
20260902121541 76 121 0.0 3.5 0.00 0.00 0.00 89 1018.0
20260902120042 76 69 0.9 3.5 0.00 0.00 0.00 90 1017.7
20260902114540 75 0 0.0 1.7 0.00 0.00 0.00 91 1017.8
20260902113520 74 0 0.0 1.7 0.00 0.00 0.00 92 1017.8
20260902113038 74 99 0.0 1.7 0.00 0.00 0.00 93 1017.8
20260902111544 73 0 0.0 0.0 0.00 0.00 0.00 94 1018.0
20260902110039 73 0 0.0 0.0 0.00 0.00 0.00 94 1017.9
20260902105521 73 0 0.0 0.0 0.00 0.00 0.00 94 1017.9
20260902104554 72 0 0.0 0.9 0.00 0.00 0.00 94 1017.7
20260902103044 72 0 0.0 0.0 0.00 0.00 0.00 93 1017.8
20260902101539 73 0 0.0 0.0 0.00 0.00 0.00 93 1017.5
20260902100106 73 0 0.0 0.0 0.00 0.00 0.00 92 1017.4
20260902094547 73 0 0.0 0.0 0.00 0.00 0.00 92 1017.4
20260902093044 73 0 0.0 0.0 0.00 0.00 0.00 92 1017.6
20260902091559 74 0 0.0 0.0 0.00 0.00 0.00 92 1017.5
20260902090039 74 0 0.0 0.9 0.00 0.00 0.00 91 1017.4
20260902084543 74 0 0.0 0.9 0.00 0.00 0.00 91 1017.4
20260902083044 75 0 0.0 0.0 0.00 0.00 0.00 91 1017.6
20260902081539 75 87 0.0 0.9 0.00 0.00 0.00 90 1017.5
20260902080054 75 95 0.0 0.9 0.00 0.00 0.00 89 1017.4
20260902075521 76 0 0.0 0.9 0.00 0.00 0.00 89 1017.5
20260902075021 76 0 0.0 0.9 0.00 0.00 0.00 89 1017.5
20260902074538 76 0 0.0 0.9 0.00 0.00 0.00 88 1017.5
20260902073043 76 0 0.0 1.7 0.00 0.00 0.00 87 1017.2
20260902071555 77 0 0.0 2.6 0.00 0.00 0.00 87 1017.2
20260902070040 77 73 0.0 2.6 0.00 0.00 0.00 86 1016.9
20260902064538 77 0 0.0 1.7 0.00 0.00 0.00 86 1016.7
20260902063045 78 0 0.0 2.6 0.00 0.00 0.00 85 1016.6
20260902062522 78 113 0.0 2.6 0.00 0.00 0.00 85 1016.5
20260902062020 78 0 0.0 0.9 0.00 0.00 0.00 85 1016.6
20260902061544 78 0 0.0 1.7 0.00 0.00 0.00 84 1016.6
20260902061020 78 0 0.0 2.6 0.00 0.00 0.00 84 1016.5
20260902060046 79 0 0.0 1.7 0.00 0.00 0.00 84 1016.5
20260902054545 79 124 0.0 6.1 0.00 0.00 0.00 83 1016.6
20260902053045 79 65 0.9 7.0 0.00 0.00 0.00 82 1016.6
20260902051538 80 51 0.0 2.6 0.00 0.00 0.00 82 1016.8
20260902050048 80 0 0.0 2.6 0.00 0.00 0.00 82 1016.4
20260902044542 80 0 0.0 5.2 0.00 0.00 0.00 82 1016.5
20260902043038 80 109 0.0 0.9 0.00 0.00 0.00 79 1016.4
20260902042521 80 0 0.0 0.9 0.00 0.00 0.00 78 1016.3
20260902042022 81 0 0.0 0.9 0.00 0.00 0.00 77 1016.2
20260902041542 81 117 0.0 0.9 0.00 0.00 0.00 76 1016.2
20260902040046 81 119 0.0 1.7 0.00 0.00 0.00 75 1016.0
20260902034541 81 0 0.0 0.9 0.00 0.00 0.00 74 1015.7
20260902033040 82 0 0.0 0.9 0.00 0.00 0.00 74 1015.2
20260902032521 82 0 0.0 0.9 0.00 0.00 0.00 73 1015.2
20260902031539 83 0 0.0 0.0 0.00 0.00 0.00 72 1015.1
20260902030045 84 190 0.0 0.9 0.00 0.00 0.00 71 1014.9
20260902024540 84 0 0.0 3.5 0.00 0.00 0.00 70 1014.6
20260902023039 84 0 0.0 4.3 0.00 0.00 0.00 71 1014.5
20260902022519 84 167 0.9 4.3 0.00 0.00 0.00 73 1014.6
20260902022018 84 0 0.9 3.5 0.00 0.00 0.00 73 1014.6
20260902021548 84 0 0.9 3.5 0.00 0.00 0.00 73 1014.7
20260902021024 84 178 0.9 2.6 0.00 0.00 0.00 72 1014.9
20260902020045 84 213 0.9 3.5 0.00 0.00 0.00 72 1014.9
20260902014544 85 173 0.0 2.6 0.00 0.00 0.00 72 1014.7